Greenville, ME

11:25 AM EST on December 09, 2019 (GMT -0500)
Greenville

Weather History for KGNR - August, 2019

Change the Weather History Date:

Sunday, August 4, 2019

  Actual Average (KMLT) Record (KMLT)
Temperature  
Mean Temperature 62 °F -  
Max Temperature 70 °F 78 °F 94 °F (1944)
Min Temperature 55 °F 59 °F 39 °F (1918)
Degree Days  
Heating Degree Days 2    
Growing Degree Days 12 (Base 50)    
Moisture  
Dew Point 49 °F    
Average Humidity 65    
Maximum Humidity 93    
Minimum Humidity 39    
Precipitation  
Precipitation 0.00 in - - ()
Sea Level Pressure  
Sea Level Pressure 29.89 in    
Wind  
Wind Speed 9 mph (NW)    
Max Wind Speed 16 mph    
Max Gust Speed 24 mph    
Averages and records for this station are not official NWS values.
T = Trace of Precipitation, MM = Missing Value Source: NWS Daily Summary

Daily Weather History Graph

Daily Weather History Graph

Search for Another Location

Airport or City:

Astronomy

Aug. 04, 2019 Rise Set
Actual Time 5:25 AM EDT 8:02 PM EDT
Civil Twilight 4:51 AM EDT 8:36 PM EDT
Nautical Twilight 4:09 AM EDT 9:18 PM EDT
Astronomical Twilight 3:20 AM EDT 10:07 PM EDT
Moon 9:37 AM EDT (8/4) 10:27 PM EDT (8/4)
Length of Visible Light 15h 44m
Length of Day
14h 37m
Waxing Crescent, 18% of the Moon is Illuminated
Aug 4
Waxing Crescent
Aug 7
First Quarter
Aug 15
Full
Aug 23
Last Quarter
Aug 30
New

Hourly Weather History & Observations

Time (EDT) Temp. Dew Point Humidity Pressure Visibility Wind Dir Wind Speed Gust Speed Precip Events Conditions
12:56 AM 60.1 °F 57.0 °F 90% 29.87 in - WNW 8.1 mph - N/A   Unknown
1:56 AM 60.1 °F 57.0 °F 90% 29.87 in - NW 10.4 mph - N/A   Unknown
2:56 AM 60.1 °F 57.0 °F 90% 29.87 in - NNW 8.1 mph - N/A   Unknown
3:56 AM 59.0 °F 57.0 °F 93% 29.88 in - NNW 5.8 mph - N/A   Unknown
4:56 AM 59.0 °F 57.0 °F 93% 29.88 in - Variable 6.9 mph - N/A   Unknown
5:56 AM 59.0 °F 55.9 °F 90% 29.88 in - North 5.8 mph - N/A   Unknown
6:56 AM 60.1 °F 57.0 °F 90% 29.88 in - NW 9.2 mph - N/A   Unknown
7:56 AM 59.0 °F 55.0 °F 87% 29.88 in - NW 8.1 mph - N/A   Unknown
8:56 AM 63.0 °F 52.0 °F 67% 29.89 in - NNW 9.2 mph - N/A   Unknown
9:56 AM 64.0 °F 50.0 °F 60% 29.89 in - NW 10.4 mph 16.1 mph N/A   Unknown
10:56 AM 66.0 °F 48.0 °F 52% 29.90 in - WNW 8.1 mph 18.4 mph N/A   Unknown
11:56 AM 68.0 °F 43.0 °F 40% 29.89 in - NNW 8.1 mph 19.6 mph N/A   Unknown
12:56 PM 69.1 °F 43.0 °F 39% 29.89 in - NW 12.7 mph 23.0 mph N/A   Unknown
1:56 PM 70.0 °F 46.0 °F 42% 29.88 in - WNW 11.5 mph 19.6 mph N/A   Unknown
2:56 PM 70.0 °F 46.0 °F 42% 29.88 in - NNW 11.5 mph 21.9 mph N/A   Unknown
3:56 PM 69.1 °F 46.0 °F 44% 29.88 in - NNW 12.7 mph 21.9 mph N/A   Unknown
4:56 PM 66.9 °F 43.0 °F 42% 29.88 in - NNW 16.1 mph 24.2 mph N/A   Unknown
5:56 PM 66.0 °F 44.1 °F 45% 29.89 in - NW 12.7 mph 21.9 mph N/A   Unknown
6:56 PM 63.0 °F 43.0 °F 48% 29.91 in - NW 10.4 mph 19.6 mph N/A   Unknown
7:56 PM 61.0 °F 44.1 °F 54% 29.91 in - NW 11.5 mph 19.6 mph N/A   Unknown
8:56 PM 59.0 °F 45.0 °F 60% 29.93 in - NW 8.1 mph 16.1 mph N/A   Unknown
9:56 PM 57.0 °F 46.0 °F 67% 29.93 in - WNW 5.8 mph - N/A   Unknown
10:56 PM 55.0 °F 46.0 °F 72% 29.93 in - NW 6.9 mph - N/A   Unknown
11:56 PM 55.0 °F 46.0 °F 72% 29.93 in - NW 6.9 mph - N/A   Unknown